TimeCDT,TemperatureF,Dew PointF,Humidity,Sea Level PressureIn,VisibilityMPH,Wind Direction,Wind SpeedMPH,Gust SpeedMPH,PrecipitationIn,Events,Conditions,WindDirDegrees,DateUTC
12:15 AM,77.0,69.8,78,29.97,10.0,ENE,10.4,-,N/A,,Scattered Clouds,60,2013-09-08 05:15:00
12:35 AM,75.2,68.0,78,29.97,10.0,ENE,12.7,18.4,N/A,,Scattered Clouds,60,2013-09-08 05:35:00
12:55 AM,73.4,68.0,83,29.98,10.0,ENE,12.7,17.3,N/A,,Clear,70,2013-09-08 05:55:00
1:15 AM,73.4,66.2,78,29.99,10.0,ENE,13.8,19.6,N/A,,Clear,60,2013-09-08 06:15:00
1:35 AM,71.6,66.2,83,29.99,10.0,ENE,15.0,-,N/A,,Clear,60,2013-09-08 06:35:00
1:55 AM,71.6,68.0,88,29.99,10.0,ENE,15.0,18.4,N/A,,Scattered Clouds,60,2013-09-08 06:55:00
2:15 AM,71.6,66.2,83,29.98,10.0,ENE,17.3,-,N/A,,Overcast,60,2013-09-08 07:15:00
2:35 AM,71.6,66.2,83,29.99,10.0,ENE,13.8,-,N/A,,Overcast,70,2013-09-08 07:35:00
2:55 AM,71.6,64.4,78,30.00,10.0,ENE,17.3,21.9,N/A,,Overcast,60,2013-09-08 07:55:00
3:15 AM,71.6,64.4,78,30.01,10.0,ENE,18.4,25.3,N/A,,Overcast,60,2013-09-08 08:15:00
3:35 AM,69.8,64.4,83,30.01,10.0,ENE,13.8,21.9,N/A,,Overcast,70,2013-09-08 08:35:00
3:55 AM,69.8,64.4,83,30.01,10.0,East,11.5,17.3,N/A,,Overcast,80,2013-09-08 08:55:00
4:15 AM,69.8,62.6,78,30.01,10.0,NE,13.8,20.7,N/A,,Overcast,50,2013-09-08 09:15:00
4:35 AM,68.0,62.6,83,30.01,10.0,ENE,18.4,23.0,N/A,,Overcast,60,2013-09-08 09:35:00
4:55 AM,68.0,60.8,78,30.01,10.0,NE,15.0,19.6,N/A,,Overcast,50,2013-09-08 09:55:00
5:15 AM,68.0,60.8,78,30.01,10.0,ENE,17.3,23.0,N/A,,Overcast,60,2013-09-08 10:15:00
5:35 AM,66.2,60.8,83,30.01,10.0,ENE,16.1,-,N/A,,Overcast,60,2013-09-08 10:35:00
5:55 AM,66.2,60.8,83,30.03,10.0,ENE,15.0,21.9,N/A,,Overcast,70,2013-09-08 10:55:00
6:15 AM,66.2,59.0,78,30.03,10.0,ENE,15.0,20.7,N/A,,Overcast,60,2013-09-08 11:15:00
6:35 AM,66.2,59.0,78,30.04,10.0,ENE,12.7,19.6,N/A,,Overcast,60,2013-09-08 11:35:00
6:55 AM,66.2,59.0,78,30.04,10.0,ENE,13.8,21.9,N/A,,Overcast,60,2013-09-08 11:55:00
7:15 AM,64.4,59.0,83,30.04,10.0,ENE,15.0,20.7,N/A,,Overcast,60,2013-09-08 12:15:00
7:35 AM,64.4,59.0,83,30.04,10.0,ENE,12.7,-,N/A,,Overcast,70,2013-09-08 12:35:00
7:55 AM,66.2,59.0,78,30.04,10.0,East,13.8,19.6,N/A,,Overcast,80,2013-09-08 12:55:00
8:15 AM,66.2,59.0,78,30.04,10.0,East,12.7,-,N/A,,Overcast,80,2013-09-08 13:15:00
8:35 AM,66.2,59.0,78,30.04,10.0,East,11.5,-,N/A,,Overcast,90,2013-09-08 13:35:00
8:55 AM,66.2,59.0,78,30.04,10.0,East,9.2,-,N/A,,Overcast,90,2013-09-08 13:55:00
9:15 AM,68.0,59.0,73,30.06,10.0,ENE,11.5,-,N/A,,Overcast,70,2013-09-08 14:15:00
9:35 AM,66.2,59.0,78,30.07,10.0,East,10.4,16.1,N/A,,Overcast,80,2013-09-08 14:35:00
9:55 AM,66.2,60.8,83,30.07,10.0,ENE,10.4,-,N/A,,Overcast,70,2013-09-08 14:55:00
10:15 AM,68.0,60.8,78,30.07,10.0,East,10.4,-,N/A,,Overcast,80,2013-09-08 15:15:00
10:35 AM,68.0,60.8,78,30.07,10.0,East,10.4,-,N/A,,Overcast,80,2013-09-08 15:35:00
10:55 AM,68.0,60.8,78,30.07,10.0,East,10.4,-,N/A,,Overcast,80,2013-09-08 15:55:00
11:15 AM,69.8,60.8,73,30.07,10.0,ENE,10.4,-,N/A,,Overcast,70,2013-09-08 16:15:00
11:35 AM,69.8,60.8,73,30.07,10.0,East,11.5,-,N/A,,Overcast,90,2013-09-08 16:35:00
11:55 AM,69.8,60.8,73,30.07,10.0,ENE,10.4,16.1,N/A,,Overcast,70,2013-09-08 16:55:00
12:15 PM,69.8,60.8,73,30.07,10.0,ENE,11.5,-,N/A,,Overcast,70,2013-09-08 17:15:00
12:35 PM,71.6,62.6,73,30.07,10.0,East,8.1,-,N/A,,Overcast,100,2013-09-08 17:35:00
12:55 PM,71.6,62.6,73,30.06,10.0,East,9.2,-,N/A,,Overcast,90,2013-09-08 17:55:00
1:15 PM,71.6,62.6,73,30.05,10.0,ENE,10.4,-,N/A,,Overcast,70,2013-09-08 18:15:00
1:35 PM,71.6,62.6,73,30.05,10.0,East,9.2,18.4,N/A,,Overcast,90,2013-09-08 18:35:00
1:55 PM,71.6,62.6,73,30.04,10.0,East,10.4,-,N/A,,Overcast,100,2013-09-08 18:55:00
2:15 PM,73.4,62.6,69,30.03,10.0,East,9.2,-,N/A,,Overcast,80,2013-09-08 19:15:00
2:35 PM,73.4,62.6,69,30.03,10.0,East,10.4,-,N/A,,Overcast,90,2013-09-08 19:35:00
2:55 PM,73.4,62.6,69,30.02,10.0,ENE,11.5,-,N/A,,Overcast,70,2013-09-08 19:55:00
3:15 PM,73.4,62.6,69,30.01,10.0,East,9.2,-,N/A,,Overcast,90,2013-09-08 20:15:00
3:35 PM,73.4,62.6,69,30.01,10.0,East,9.2,16.1,N/A,,Overcast,90,2013-09-08 20:35:00
3:55 PM,73.4,62.6,69,29.99,10.0,East,13.8,17.3,N/A,,Overcast,90,2013-09-08 20:55:00
4:15 PM,75.2,62.6,65,29.98,10.0,East,15.0,20.7,N/A,,Overcast,90,2013-09-08 21:15:00
4:35 PM,73.4,62.6,69,29.98,10.0,East,9.2,-,N/A,,Overcast,90,2013-09-08 21:35:00
4:55 PM,75.2,64.4,69,29.97,10.0,East,10.4,16.1,N/A,,Overcast,80,2013-09-08 21:55:00
5:15 PM,73.4,62.6,69,29.97,10.0,East,10.4,18.4,N/A,,Overcast,90,2013-09-08 22:15:00
5:35 PM,73.4,62.6,69,29.96,10.0,East,13.8,-,N/A,,Overcast,100,2013-09-08 22:35:00
5:55 PM,73.4,62.6,69,29.96,10.0,East,10.4,-,N/A,,Overcast,100,2013-09-08 22:55:00
6:15 PM,71.6,62.6,73,29.96,10.0,East,9.2,17.3,N/A,,Overcast,90,2013-09-08 23:15:00
6:35 PM,71.6,62.6,73,29.96,10.0,ESE,9.2,-,N/A,,Overcast,110,2013-09-08 23:35:00
6:55 PM,71.6,62.6,73,29.96,10.0,ESE,8.1,-,N/A,,Overcast,110,2013-09-08 23:55:00
7:15 PM,71.6,62.6,73,29.97,10.0,ESE,8.1,-,N/A,,Overcast,120,2013-09-09 00:15:00
7:35 PM,71.6,62.6,73,29.97,10.0,ESE,9.2,-,N/A,,Overcast,120,2013-09-09 00:35:00
7:55 PM,71.6,62.6,73,29.97,10.0,ESE,8.1,-,N/A,,Overcast,110,2013-09-09 00:55:00
8:15 PM,71.6,62.6,73,29.97,10.0,East,8.1,-,N/A,,Overcast,100,2013-09-09 01:15:00
8:35 PM,69.8,62.6,78,29.98,10.0,East,8.1,-,N/A,,Overcast,90,2013-09-09 01:35:00
8:55 PM,69.8,62.6,78,29.98,10.0,East,5.8,-,N/A,,Mostly Cloudy,90,2013-09-09 01:55:00
9:15 PM,69.8,62.6,78,29.97,10.0,East,8.1,-,N/A,,Mostly Cloudy,100,2013-09-09 02:15:00
9:35 PM,69.8,62.6,78,29.97,10.0,East,6.9,-,N/A,,Overcast,100,2013-09-09 02:35:00
9:55 PM,69.8,62.6,78,29.97,10.0,East,8.1,-,N/A,,Overcast,100,2013-09-09 02:55:00
10:15 PM,69.8,62.6,78,29.97,10.0,ESE,8.1,-,N/A,,Overcast,110,2013-09-09 03:15:00
10:35 PM,69.8,62.6,78,29.97,10.0,East,9.2,-,N/A,,Scattered Clouds,100,2013-09-09 03:35:00
10:55 PM,69.8,62.6,78,29.97,10.0,East,9.2,-,N/A,,Mostly Cloudy,100,2013-09-09 03:55:00
11:15 PM,69.8,62.6,78,29.97,10.0,East,10.4,-,N/A,,Overcast,100,2013-09-09 04:15:00
11:35 PM,69.8,62.6,78,29.97,10.0,East,9.2,-,N/A,,Mostly Cloudy,100,2013-09-09 04:35:00
11:55 PM,69.8,62.6,78,29.96,10.0,ESE,11.5,16.1,N/A,,Overcast,110,2013-09-09 04:55:00